TimeCST,TemperatureF,Dew PointF,Humidity,Sea Level PressureIn,VisibilityMPH,Wind Direction,Wind SpeedMPH,Gust SpeedMPH,PrecipitationIn,Events,Conditions,WindDirDegrees,DateUTC
12:53 AM,33.1,28.9,85,29.91,10.0,ENE,5.8,-,N/A,,Clear,70,2013-02-24 06:53:00
1:53 AM,36.0,30.0,79,29.91,10.0,Calm,Calm,-,N/A,,Clear,0,2013-02-24 07:53:00
2:53 AM,36.0,30.0,79,29.90,10.0,Calm,Calm,-,N/A,,Clear,0,2013-02-24 08:53:00
3:53 AM,30.9,27.0,85,29.90,10.0,Calm,Calm,-,N/A,,Clear,0,2013-02-24 09:53:00
4:53 AM,35.1,28.9,78,29.90,10.0,Calm,Calm,-,N/A,,Clear,0,2013-02-24 10:53:00
5:53 AM,33.1,28.0,82,29.90,10.0,Calm,Calm,-,N/A,,Clear,0,2013-02-24 11:53:00
6:53 AM,33.1,27.0,78,29.90,10.0,SE,3.5,-,N/A,,Clear,130,2013-02-24 12:53:00
7:53 AM,36.0,30.0,79,29.91,10.0,SE,6.9,-,N/A,,Clear,140,2013-02-24 13:53:00
8:53 AM,44.1,35.1,71,29.92,10.0,SSE,9.2,-,N/A,,Clear,150,2013-02-24 14:53:00
9:53 AM,52.0,39.9,63,29.90,10.0,SSE,18.4,-,N/A,,Clear,150,2013-02-24 15:53:00
10:53 AM,57.0,41.0,55,29.89,10.0,SSE,20.7,26.5,N/A,,Clear,160,2013-02-24 16:53:00
11:53 AM,61.0,39.9,46,29.86,10.0,SE,17.3,-,N/A,,Clear,140,2013-02-24 17:53:00
12:53 PM,64.0,39.9,41,29.81,10.0,SSE,18.4,25.3,N/A,,Clear,150,2013-02-24 18:53:00
1:53 PM,66.0,41.0,40,29.75,10.0,SE,15.0,24.2,N/A,,Clear,140,2013-02-24 19:53:00
2:53 PM,66.9,39.0,36,29.72,10.0,SE,19.6,26.5,N/A,,Clear,140,2013-02-24 20:53:00
3:53 PM,68.0,39.0,35,29.71,10.0,SE,17.3,-,N/A,,Clear,140,2013-02-24 21:53:00
4:53 PM,66.9,39.0,36,29.69,10.0,SSE,19.6,26.5,N/A,,Clear,150,2013-02-24 22:53:00
5:53 PM,64.9,39.0,39,29.70,10.0,SE,10.4,-,N/A,,Clear,140,2013-02-24 23:53:00
7:53 PM,59.0,36.0,42,29.69,10.0,ESE,6.9,-,N/A,,Clear,110,2013-02-25 01:53:00
8:53 PM,57.9,37.0,46,29.69,10.0,East,10.4,-,N/A,,Clear,100,2013-02-25 02:53:00
9:53 PM,55.9,37.0,49,29.67,10.0,ESE,10.4,-,N/A,,Clear,110,2013-02-25 03:53:00
10:53 PM,54.0,37.9,55,29.62,10.0,ESE,11.5,-,N/A,,Clear,120,2013-02-25 04:53:00
11:53 PM,55.0,39.0,55,29.58,10.0,SE,13.8,23.0,N/A,,Clear,130,2013-02-25 05:53:00